Вернуться в каталог

STARLINK-30502

АктивенСвязьVLEO
NORAD 57973·PAYLOAD·🇺🇸 United States

Запущен Sep 30, 2023 с Cape Canaveral Space Force Station

Loading…

Ближайшие Пролёты (ближайшие 24 часа)

TLE

СвежийSource: CelesTrak SupGP

Эпоха: Sep 14, 2026, 20:45 UTC

1 57973C 23151K   26257.86506944 -.00003666  00000+0 -13278-3 0  2570
2 57973  43.0030 347.5506 0001622 273.8063 290.0495 15.27580685    10

Отслеживайте STARLINK-30502 в реальном времени с AllMySat

Download on the App Store